Situs Poker Online Terpercaya di Indonesia | Dewapoker | DGpoker

Jackpot

Texas Poker Multi Jackpot System

Kini Telah hadir Jackpot SUPER ROYAL FLUSH

Kini Telah hadir Jackpot 2000 (khusus table VIP keatas).

Ikutilah global jackpot yang tersedia di system kami, dengan system jackpot terbaru dan pertama di indonesia, anda dapat membeli jackpot dengan harga 100 rupiah saja dan menangkan hadiahnya hingga puluhan juta rupiah.

Jackpot bukanlah suatu keharusan untuk dibeli, namun kami memberikan suatu fitur tambahan untuk member tercinta dari www.888dg888.net.

Terdapat tiga pilihan harga jackpot yang bisa anda beli yaitu :100,500,1000 dan 2000(khusus table VIP Keatas) rupiah.

Hadiah dari Multi jackpot system www.888dg888.net

  1. full house x 10 harga jackpot yang anda beli.
      (contoh:anda membeli 1000 maka:1000 X10 = 10.000)
  2. four of kind x 250 harga jackpot yang anda beli
      (contoh:anda membeli 1000 maka:1000 X250 = 250.000)
  3. Straight flush x 1200
      (contoh:anda membeli 1000 maka:1000 X1200 = 1.200.000)
  4. Royal flush x 10000 harga jackpot yang anda beli
      (contoh:anda membeli 1000 maka:1000 X10000 = 10.000.000)
  5. SUPER ROYAL FLUSH x 30000 harga jackpot yang anda beli
      (contoh:anda membeli 1000 maka:1000 X30000 = 30.000.000)

Kondisi kartu

  1. full house adalah kondisi kartu dimana kartu anda dan kartu tengah dengan total 7 kartu bisa mendapatkan nilai 5 kartu dengan kombinasi 1 tris(three of kind) dan 1 pair, contoh 3 kartu 10 dan 2 kartu 5
  2. Four of kind adalah kondisi kartu dimana kartu anda dan kartu tengah dengan total 7 kartu bisa mendapatkan nilai 5 kartu dengan kombinasi 4 kartu yang sama jumlah dan 1 kartu apapun juga contoh anda mendapatkan 4 buah kartu angka 3 dan 1 kartu apapun.
  3. Staright flush adalah kondisi kartu dimana kartu anda dan kartu tengah dengan total 7 kartu bisa mendapatkan nilai 5 kartu dengan kombinasi seri / staright dengan kembang yang sama contoh : urutan kartu dari angka 5, 6, 7, 8 , 9 10 dengan kembang yg sama misalnya as hati
  4. Royal flush adalah kondisi kartu dimana kartu anda dan kartu tengah dengan total 7 kartu bisa mendapatkan nilai 5 kartu dengan kombinasi seri / staright dengan kembang yang sama tetapi kartu tersebut haruslah dimulai dari 10. contoh 10, Queen, Jack, King dan aces dengan kembang yang sama
  5. Super Royal flush adalah kondisi kartu dimana Kedua kartu anda digabung dengan 3 kartu pertama meja haruslah royal flush. contoh kartu anda 10,Queen kembang sama dan 3 kartu pertama meja adalah Jack, King dan aces dengan kembang yang sama

Demikian adalah penjelasan dari Multi Jackpot www.888dg888.net terima kasih dan selamat bermain salam hoki dari kami

Texas Poker Jackpot Winner

TOP SUPER ROYAL FLUSH
No.TanggalNamaPriceWin
123/09 00:01ANTY69Super Royal flush6,000,000
222/09 23:57ACUY456Super Royal flush6,000,000
322/09 22:37HEBOH_9Super Royal flush6,000,000
422/09 21:03SAMSUDIN99Super Royal flush6,000,000
522/09 19:41A4627HGSuper Royal flush3,000,000
TOP ROYAL FLUSH
No.TanggalNamaPriceWin
123/09 07:03JAKA009Royal flush5,000,000
223/09 06:55ABDUL93Royal flush2,000,000
323/09 06:27BASWIR13Royal flush1,000,000
423/09 05:31SF2687Royal flush5,000,000
523/09 05:28MODAL88Royal flush10,000,000
TOP STRAIGHT FLUSH
No.TanggalNamaPriceWin
123/09 07:31AA05Straight Flush240,000
223/09 07:31GOWELStraight Flush600,000
323/09 07:26KHOI999Straight Flush2,400,000
423/09 07:24CAVANI17Straight Flush600,000
523/09 07:22YUMARI997Straight Flush600,000
LATEST JACKPOT
No.TanggalNamaPriceWin
123/09 07:32E5564D77Full House5,000
223/09 07:32ADOBERAPOFull House2,000
323/09 07:32LGPK1001Full House1,000
423/09 07:32HUMIDI11Full House2,000
523/09 07:32VISA202Full House2,000
623/09 07:32OIUL37200KFull House5,000
723/09 07:32BONGALEXFull House1,000
823/09 07:32T118TMDK08Full House1,000
923/09 07:31ANUBAFull House10,000
1023/09 07:31BREM11Full House10,000
1123/09 07:31LIMP3RFull House5,000
1223/09 07:31AA05Straight Flush240,000
1323/09 07:31BAUMAN420Full House1,000
1423/09 07:31JALKAOFull House5,000
1523/09 07:31TIQ584QSC6Full House1,000
1623/09 07:31ABCDE12312Full House5,000
1723/09 07:31BIONDA88Full House10,000
1823/09 07:31TGLMNFull House5,000
1923/09 07:31ZCARN1VVIMFull House2,000
2023/09 07:31JOKERS92Full House5,000
2123/09 07:31LELE114Full House2,000
2223/09 07:31PALALOLELOFull House1,000
2323/09 07:31MBOKIYO09Full House10,000
2423/09 07:31XELINX88Full House2,000
2523/09 07:31LEHONG78Full House2,000
2623/09 07:31JUT98Full House1,000
2723/09 07:31BOSKU10000Full House2,000
2823/09 07:31RBEDZFull House5,000
2923/09 07:31HOR4S5Full House10,000
3023/09 07:31GOWELStraight Flush600,000
3123/09 07:31CINGLUNFull House500
3223/09 07:31ONCO0M99Full House2,000
3323/09 07:31PURUPUYSFour Of A Kind250,000
3423/09 07:31PPGGFull House1,000
3523/09 07:31WAKDOYAKFull House2,000
3623/09 07:31TENG_TONGFour Of A Kind50,000
3723/09 07:31SYANTIX88Full House20,000
3823/09 07:31SUNGIFT89Full House5,000
3923/09 07:31PERCIK33Full House5,000
4023/09 07:31BK3879Full House1,000
4123/09 07:31JIMBO09Full House500
4223/09 07:31BALON898Full House5,000
4323/09 07:31MAMAIKIFull House5,000
4423/09 07:31MISTER86Full House5,000
4523/09 07:31REYOO1Full House1,000
4623/09 07:31DN4DDOLLAR81Full House5,000
4723/09 07:31LEVINZHANGFull House5,000
4823/09 07:31MURENG20Full House5,000
4923/09 07:31PKTEMPOS23Full House2,000
5023/09 07:31EMANG120Full House5,000

Domino Multi Jackpot System

Ikutilah global jackpot yang tersedia di system kami, dengan system jackpot terbaru dan pertama di indonesia, anda dapat membeli jackpot dengan harga 100 rupiah saja dan menangkan hadiahnya hingga puluhan juta rupiah.

Jackpot bukanlah suatu keharusan untuk dibeli, namun kami memberikan suatu fitur tambahan untuk member tercinta dari www.888dg888.net.

Terdapat tiga pilihan harga jackpot yang bisa anda beli yaitu :100,500 dan 1000 rupiah.

Hadiah dari Multi jackpot system www.888dg888.net

  1. Murni Kecil x 50 harga jackpot yang anda beli.
      (contoh:anda membeli 1000 maka:1000 X 50 = 50.000)
  2. Murni Besar x 50 harga jackpot yang anda beli
      (contoh:anda membeli 1000 maka:1000 X 50 = 50.000)
  3. BALAK x 100 harga jackpot yang anda beli
      (contoh:anda membeli 1000 maka:1000 X 100 = 100.000)
  4. ENAM DEWA x 6666 harga jackpot yang anda beli
      (contoh:anda membeli 1000 maka:1000 X 6666 = 6.666.000)

Demikian adalah penjelasan dari Multi Jackpot www.888dg888.net terima kasih dan selamat bermain salam hoki dari kami

Domino Jackpot Winner

TOP ENAM DEWA
No.TanggalNamaPriceWin
123/09 07:30LUCKYPANDAmurni enam6,666,000
223/09 07:24DN4DJUST20murni enam3,333,000
323/09 06:35LAPES88murni enam3,333,000
423/09 05:21FAHMI_333murni enam666,600
523/09 04:24JINNALLEmurni enam3,333,000
TOP BALAK
No.TanggalNamaPriceWin
123/09 07:29SG_BASTIANbalak50,000
223/09 07:19KAMPUT77balak100,000
323/09 07:17DWBTYAT989balak10,000
423/09 07:13YIU99balak10,000
523/09 07:13PRIOK92balak50,000
LATEST JACKPOT
No.TanggalNamaPriceWin
123/09 07:32ARDYAN1932murni kecil25,000
223/09 07:31BEBEC98murni besar50,000
323/09 07:30LUCKYPANDAmurni enam6,666,000
423/09 07:29PLGUPPY89murni besar25,000
523/09 07:29SG_BASTIANbalak50,000
623/09 07:28AS3918murni kecil25,000
723/09 07:28BOT666murni kecil50,000
823/09 07:28AKBOOYmurni kecil25,000
923/09 07:26ABAHJURIG9murni besar50,000
1023/09 07:25C84CASLITA751murni kecil50,000
1123/09 07:25KD_PKmurni kecil50,000
1223/09 07:24VIMAXmurni besar50,000
1323/09 07:24DN4DJUST20murni enam3,333,000
1423/09 07:23BIBER12murni kecil25,000
1523/09 07:23C84CASLITA751murni besar50,000
1623/09 07:22HERRY005murni besar50,000
1723/09 07:22JUTA100murni besar5,000
1823/09 07:21VIMAXmurni kecil50,000
1923/09 07:20VIMAXmurni kecil50,000
2023/09 07:20SOPO16murni kecil25,000
2123/09 07:20UNIONTRUSTlucky99200,000
2223/09 07:19KAMPUT77balak100,000
2323/09 07:18ROOM212murni kecil25,000
2423/09 07:17CIPUY78murni kecil50,000
2523/09 07:17AOOOOOmurni kecil25,000
2623/09 07:17DWBTYAT989balak10,000
2723/09 07:16FADERSmurni besar50,000
2823/09 07:15GUSTH3Ymurni besar50,000
2923/09 07:15JUTA100murni besar5,000
3023/09 07:15PARK_Imurni kecil50,000
3123/09 07:13WOW3000murni kecil50,000
3223/09 07:13YIU99balak10,000
3323/09 07:13PRIOK92balak50,000
3423/09 07:11MEY_MEY13murni kecil50,000
3523/09 07:11Z10ND4murni kecil5,000
3623/09 07:09MAYA233lucky9925,000
3723/09 07:07AYLGKS9TF7balak50,000
3823/09 07:07MAHADEWA_murni kecil25,000
3923/09 07:05HAER333murni besar50,000
4023/09 07:04ZOAM27murni besar50,000
4123/09 07:03THOM420balak100,000
4223/09 07:02HAWARI1murni kecil5,000
4323/09 07:02CC34A800murni kecil5,000
4423/09 07:00ADMINNEWmurni besar50,000
4523/09 06:59AOOOOObalak50,000
4623/09 06:58ADI8900murni kecil5,000
4723/09 06:58WJRD60GZJBlucky9925,000
4823/09 06:57OEZANbalak100,000
4923/09 06:57BRSmurni kecil50,000
5023/09 06:54ARDYAN1932murni besar25,000

Ceme Multi Jackpot System

Jackpot dilihat dari gabungan kartu pemain dengan kartu bandar. Bandar harus membeli jackpot sebanyak jumlah player yang sedang duduk. Sebagai contoh bila terdapat 3 pemain duduk bermain, dan bandar memutuskan untuk membeli jackpot Rp 1.000, maka pada periode tersebut bandar akan membeli jackpot sebanyak 3xRp1.000 = Rp3.000.

Jackpot bukanlah suatu keharusan untuk dibeli, namun kami memberikan suatu fitur tambahan untuk member tercinta dari www.888dg888.net.

Terdapat tiga pilihan harga jackpot yang bisa anda beli yaitu :100,500 dan 1000 rupiah.

Hadiah dari Multi jackpot system www.888dg888.net

  1. Murni Kecil x 50 harga jackpot yang anda beli.
      (contoh:anda membeli 1000 maka:1000 X 50 = 50.000)
  2. Murni Besar x 50 harga jackpot yang anda beli
      (contoh:anda membeli 1000 maka:1000 X 50 = 50.000)
  3. BALAK x 200 harga jackpot yang anda beli
      (contoh:anda membeli 1000 maka:1000 X 200 = 200.000)
  4. ENAM DEWA x 6666 harga jackpot yang anda beli
      (contoh:anda membeli 1000 maka:1000 X 6666 = 6.666.000)

Demikian adalah penjelasan dari Multi Jackpot www.888dg888.net terima kasih dan selamat bermain salam hoki dari kami

Ceme Jackpot Winner

TOP ENAM DEWA
No.TanggalNamaPriceWin
123/09 07:23BADAGOK30murni enam6,666,000
223/09 06:50CHELBYNE77murni enam6,666,000
323/09 06:41FASTABIQmurni enam6,666,000
423/09 05:16FIXCELLmurni enam666,600
523/09 05:16PEJUANG252murni enam3,333,000
TOP BALAK
No.TanggalNamaPriceWin
123/09 07:31BATAKTOLbalak200,000
223/09 07:31LEAK1balak200,000
323/09 07:28TAKTIKBOMbalak200,000
423/09 07:28VDW2208balak100,000
523/09 07:28BENDRObalak20,000
LATEST JACKPOT
No.TanggalNamaPriceWin
123/09 07:31PORTUGAL21murni besar50,000
223/09 07:31NUMBER10murni besar50,000
323/09 07:31BATAKTOLbalak200,000
423/09 07:31LEAK1balak200,000
523/09 07:31MELAWANmurni kecil50,000
623/09 07:31SANEELKLETmurni kecil25,000
723/09 07:31MELAWANmurni kecil50,000
823/09 07:31KHIPOYmurni kecil25,000
923/09 07:31PIKKOmurni besar50,000
1023/09 07:31ROBOTTmurni besar50,000
1123/09 07:30BONDEL999murni kecil5,000
1223/09 07:30BONDEL999murni kecil5,000
1323/09 07:30ARIF58murni kecil25,000
1423/09 07:30VDW2208murni kecil25,000
1523/09 07:30SAMIN54murni besar50,000
1623/09 07:30KILIKILI79murni kecil5,000
1723/09 07:30BUBMAK19murni kecil50,000
1823/09 07:29KN30murni besar5,000
1923/09 07:29ANANDA28murni kecil50,000
2023/09 07:29TANAKBIDmurni kecil50,000
2123/09 07:29ASIOAmurni kecil25,000
2223/09 07:29ARIADI25murni kecil50,000
2323/09 07:29BATAKTOLmurni kecil50,000
2423/09 07:29HAYAM7777murni besar50,000
2523/09 07:29SAMIN54murni kecil50,000
2623/09 07:28ZEKO010murni kecil50,000
2723/09 07:28SURYATIPmurni kecil50,000
2823/09 07:28TAKTIKBOMbalak200,000
2923/09 07:28VDW2208balak100,000
3023/09 07:28BENDROmurni kecil5,000
3123/09 07:28BENDRObalak20,000
3223/09 07:28CHELLY26balak20,000
3323/09 07:27B00Ymurni besar50,000
3423/09 07:27CAMO202balak20,000
3523/09 07:27ANDA81_murni besar50,000
3623/09 07:27ALIYAUmurni besar50,000
3723/09 07:27UBUY002murni kecil50,000
3823/09 07:27A53G89300balak200,000
3923/09 07:27IBP89598balak20,000
4023/09 07:27DICKY8388murni kecil25,000
4123/09 07:27RAHAYU538murni besar50,000
4223/09 07:26WAHYU1933_murni kecil50,000
4323/09 07:26CINDYDEWImurni kecil50,000
4423/09 07:26RIZALKACAUmurni kecil50,000
4523/09 07:26CUNSTHEAbalak200,000
4623/09 07:26EOZAI7ESLLmurni kecil5,000
4723/09 07:26KEISAHA3balak100,000
4823/09 07:26KARTU666balak200,000
4923/09 07:26YARDI123murni kecil5,000
5023/09 07:26KARY00murni kecil50,000